Weather in Bol'shiye Golubochki

Russia / Tula Oblast     53°31′43″N   36°21′03″E
temp.,
°C
wind,
m/s
gust,
m/s
humid.,
%
clouds,
%
prec.,
mm/h
press.,
hPa
HPBL,
m
15 may, sat
sat1500:00+14sse239437 1.6 100841
03:00+13sse2294100 1.6 100814
06:00+14s24950 0.0 100878
09:00+18ssw5883100 0.4 1009457
12:00+20ssw67615 0.3 10101387
15:00+20ssw796441 0.8 10091595
18:00+18ssw6118017 1.5 1010898
21:00+14ssw51290100 3.1 1010380
16 may, sun
sun1600:00+12ssw39961 0.0 1011189
03:00+11s39954 0.0 1012195
06:00+11ssw39945 0.0 1013218
09:00+16ssw57794 0.0 1014651
12:00+19ssw57630 0.0 10141398
15:00+21ssw46590 0.0 10141568
18:00+20ssw2469100 0.0 1013556
21:00+15se118020 0.0 101411
17 may, mon
mon1700:00+13e228516 0.0 101415
03:00+12e359055 0.0 101465
06:00+13ene3109368 0.6 1013239
09:00+19e6108018 0.6 1011465
12:00+23ese710627 0.0 1010854
15:00+25ese7126365 0.0 10081165
18:00+23ese7146619 0.0 1007656
21:00+18ese5148299 0.0 1007310
18 may, tue
tue1800:00+17se5148279 0.0 1006339
03:00+16ese51185100 0.0 1005240
06:00+16se51289100 0.0 1005296
09:00+20se7127854 0.0 1004715
12:00+21sse8126967 0.0 10041251
15:00+21s91475100 0.4 10041648
18:00+18s7128478 0.9 10051054
21:00+15sse4109555 1.7 1005245
19 may, wed
wed1900:00+14se4109688 0.3 1005234
03:00+14sse51294100 0.4 1004344
06:00+14se41096100 0.8 1003353
09:00+15sse71092100 1.8 1001904
12:00+14s61090100 1.4 1001666
15:00+15ssw6985100 3.6 1001770
18:00+11w71491100 2.3 1004752
21:00+10sw61192100 2.3 1007660